Hurricane Symbol View the latest observations near East Pacific Tropical Storm Bud.

Station BUZM3 - Buzzards Bay, MA Image indicating link to RSS feed of recent meteorological observations for station BUZM3


Conditions at BUZM3 as of
(7:00 pm EDT)
2300 GMT on 07/24/2024:
     

Click on the graph icon in the table below to see a time series plot of the last five days of that observation.

5-day plot - Wind Direction Wind Direction (WDIR):ENE ( 60 deg true )
5-day plot - Wind Speed Wind Speed (WSPD): 8 kts
5-day plot - Wind Gust Wind Gust (GST): 9 kts
5-day plot - Atmospheric Pressure Atmospheric Pressure (PRES):30.11 in
5-day plot - Pressure Tendency Pressure Tendency (PTDY):-0.02 in ( Falling )
5-day plot - Air Temperature Air Temperature (ATMP): 68.2 °F
5-day plot - Wind Speed at 10 Meters Wind Speed at 10 meters (WSPD10M): 8 kts
5-day plot - Wind Speed at 20 Meters Wind Speed at 20 meters (WSPD20M): 8 kts
5-day plot -  Wind Speed, Wind Gust and Atmospheric Pressure Combined plot of Wind Speed, Gust, and Air Pressure
Continuous Winds
TIME
(EDT)
5-day plot - Wind Direction WDIR 5-day plot - Wind Speed WSPD
7:00 pmENE ( 63 deg ) 9 kts
6:50 pmNE ( 56 deg ) 8 kts
6:40 pmNE ( 47 deg ) 7 kts
6:30 pmNE ( 46 deg ) 8 kts
6:20 pmNE ( 44 deg ) 8 kts
6:10 pmNE ( 54 deg ) 7 kts
 
Peak gust during the measurement hour
TIME
(EDT)
5-day plot - Gust Direction GDR 5-day plot - Gust Speed GST
6:52 pmENE ( 60 deg ) 10 kts
Previous observations
TIME
(EDT)
5-day plot - Wind Direction
WDIR
 
5-day plot - Wind Speed
WSPD
kts
5-day plot - Wind Gust
GST
kts
5-day plot - Wave Height
WVHT
ft
5-day plot - Dominant Wave Period
DPD
sec
5-day plot - Average Wave Period
APD
sec
5-day plot - Mean Wave Direction
MWD
 
5-day plot - Atmospheric Pressure
PRES
in
5-day plot - Pressure Tendency
PTDY
in
5-day plot - Air Temperature
ATMP
°F
5-day plot - Water Temperature
WTMP
°F
5-day plot - Dew Point
DEWP
°F
5-day plot - Salinity
SAL
psu
5-day plot - Visibility
VIS
nmi
5-day plot - Tide (above MLLW)
TIDE
ft
2024-07-24 06:00 pmENE 6 6----30.11-0.03 67.8-----
2024-07-24 05:00 pmENE 6 7----30.12-0.04 68.2-----
2024-07-24 04:00 pm E 7 8----30.14-0.03 67.8-----
2024-07-24 03:00 pmENE 9 10----30.14-0.03 67.8-----
2024-07-24 02:00 pm E 8 9----30.16+0.00 67.6-----
2024-07-24 01:00 pm E 7 8----30.17-0.01 67.1-----
2024-07-24 12:00 pm E 8 9----30.17+0.00 66.4-----
2024-07-24 11:00 amENE 9 11----30.17-0.01 65.8-----
2024-07-24 10:00 am E 11 12----30.18+0.01 65.3-----
2024-07-24 09:00 am E 15 16----30.17+0.02 65.5-----
2024-07-24 08:00 am E 15 15----30.18+0.02 66.2-----
2024-07-24 07:00 am E 12 13----30.16+0.01 66.9-----
2024-07-24 06:00 am E 11 12----30.15+0.00 67.1-----
2024-07-24 05:00 am E 12 13----30.15+0.00 67.3-----
2024-07-24 04:00 am E 12 13----30.16+0.00 67.5-----
2024-07-24 03:00 amESE 12 13----30.16+0.00 68.0-----
2024-07-24 02:00 am E 8 9----30.16+0.01 68.0-----
2024-07-24 01:00 am E 7 8----30.16+0.00 68.4-----
2024-07-24 12:00 amESE 8 9----30.16+0.02 68.7-----
2024-07-23 11:00 pmESE 8 8----30.14+0.02 69.1-----
2024-07-23 10:00 pm SE 10 11----30.15+0.05 69.3-----
2024-07-23 09:00 pmESE 9 9----30.14+0.05 69.8-----
2024-07-23 08:00 pmESE 10 10----30.12+0.04 69.6-----